History for Miami, FL

Friday, November 30, 2012 — View Current Conditions

Jump to Data:

Date:
Airport Code:
Recently Viewed Airport Codes: KMIA
Daily Summary
  Actual Average Record
Temperature
Mean Temperature 74°F 73°F  
Max Temperature 79°F 80°F 87°F (1957)
Min Temperature 69°F 66°F 42°F (1959)
Degree Days
Heating Degree Days 0 0  
Month to date heating degree days 1 0  
Since 1 July heating degree days 1 3  
Cooling Degree Days 9 8  
Month to date cooling degree days 201 300  
Year to date cooling degree days 4440 4372  
Growing Degree Days 24 (Base 50)    
Moisture
Dew Point 61°F    
Average Humidity 69    
Maximum Humidity 90    
Minimum Humidity 47    
Precipitation
Precipitation 0.25 in 0.08 in 14.87 in (1925)
Month to date precipitation 0.50 3.27  
Year to date precipitation 86.43 59.86  
Snow
Snow 0.00 in in in ()
Month to date snowfall 0.0  
Since 1 July snowfall 0.0  
Since 1 September snowfall 0.0  
Snow Depth 0.00 in    
Sea Level Pressure
Sea Level Pressure 30.16 in    
Wind
Wind Speed 11 mph (ENE)    
Max Wind Speed 23 mph    
Max Gust Speed 29 mph    
Visibility 9 miles    
Events Rain    
T = Trace of Precipitation, MM = Missing Value Source: NWS Daily Summary

Show full METARS

(help) - Comma Delimited File

Hourly Observations

Time(EST) Temperature Dew Point Humidity Sea Level Pressure Visibility Wind Direction Wind Speed Gust Speed Precipitation Events Conditions
12:53 AM 73.0°F 61.0°F 66% 30.17 in 10.0 miles ENE 11.5 mph - N/A   Mostly Cloudy
1:53 AM 73.0°F 60.1°F 64% 30.16 in 10.0 miles ENE 9.2 mph 17.3 mph N/A   Mostly Cloudy
2:53 AM 73.0°F 60.1°F 64% 30.14 in 10.0 miles NE 8.1 mph - N/A   Overcast
3:53 AM 73.0°F 62.1°F 68% 30.14 in 10.0 miles NE 9.2 mph 19.6 mph 0.00 in Rain Light Rain
4:53 AM 70.0°F 66.0°F 87% 30.15 in 3.0 miles ENE 13.8 mph 25.3 mph 0.02 in Rain Rain
5:53 AM 70.0°F 66.0°F 87% 30.16 in 4.0 miles East 15.0 mph 20.7 mph 0.10 in Rain Heavy Rain
6:53 AM 70.0°F 64.9°F 84% 30.17 in 10.0 miles ENE 8.1 mph - 0.10 in   Overcast
7:29 AM 71.6°F 64.4°F 78% 30.18 in 10.0 miles NE 10.4 mph 18.4 mph 0.00 in   Overcast
7:53 AM 71.1°F 64.9°F 81% 30.18 in 10.0 miles NE 10.4 mph - 0.00 in   Overcast
8:53 AM 71.1°F 64.0°F 78% 30.21 in 7.0 miles NE 12.7 mph 18.4 mph 0.01 in Rain Light Rain
9:53 AM 71.1°F 63.0°F 75% 30.22 in 7.0 miles ENE 10.4 mph 20.7 mph 0.00 in Rain Light Rain
10:53 AM 73.0°F 62.1°F 68% 30.21 in 10.0 miles ENE 10.4 mph - 0.01 in   Overcast
11:53 AM 73.9°F 60.1°F 62% 30.19 in 10.0 miles ENE 17.3 mph 21.9 mph N/A   Mostly Cloudy
12:53 PM 78.1°F 57.9°F 50% 30.17 in 10.0 miles East 19.6 mph 25.3 mph N/A   Mostly Cloudy
1:53 PM 75.9°F 57.0°F 52% 30.14 in 10.0 miles East 19.6 mph 26.5 mph N/A   Mostly Cloudy
2:53 PM 77.0°F 55.9°F 48% 30.13 in 10.0 miles ENE 16.1 mph 21.9 mph N/A   Mostly Cloudy
3:53 PM 75.0°F 55.9°F 51% 30.14 in 10.0 miles East 16.1 mph 23.0 mph N/A   Mostly Cloudy
4:53 PM 75.0°F 57.9°F 55% 30.14 in 10.0 miles ENE 13.8 mph - N/A   Mostly Cloudy
5:53 PM 75.0°F 57.9°F 55% 30.13 in 10.0 miles East 12.7 mph - N/A   Mostly Cloudy
6:53 PM 75.0°F 59.0°F 57% 30.14 in 10.0 miles ENE 6.9 mph - N/A   Mostly Cloudy
7:53 PM 75.0°F 60.1°F 60% 30.14 in 10.0 miles ENE 6.9 mph - N/A   Overcast
8:53 PM 75.0°F 60.1°F 60% 30.16 in 10.0 miles NNE 6.9 mph - 0.00 in Rain Light Rain
9:53 PM 71.6°F 64.4°F 78% 30.16 in 10.0 miles NE 6.9 mph - N/A   Overcast
10:53 PM 71.1°F 64.9°F 81% 30.16 in 7.0 miles Variable 3.5 mph - 0.00 in Rain Light Rain
11:53 PM 70.0°F 66.0°F 87% 30.15 in 7.0 miles North 3.5 mph - 0.01 in   Overcast